{"data":{"norad_id":48097,"intl_designator":"2021-027F","name":"STARLINK-2418","alt_names":[],"object_type":"PAYLOAD","status":"ACTIVE","operator":null,"country":"US","launch_date":"2021-04-07","launch_site_code":"AFETR","launch_vehicle":null,"mission":null,"orbit_class":"UNKNOWN","rcs_meters":null,"size_class":null,"mass_kg":null,"dimensions":null,"purposes":["comms"],"wikipedia_slug":null,"has_3d_model":false,"image_url":null,"decayed_at":null,"tle_current":{"epoch":"2026-05-25T00:52:46.235136Z","epoch_age_seconds":65100,"freshness":"FRESH","line1":"1 48097U 21027F   26145.03664624  .00000378  00000+0  23946-4 0  9994","line2":"2 48097  53.1609 157.8277 0001149  81.6014 278.5117 15.31700335284379","mean_motion":15.31700335,"eccentricity":0.0001149,"inclination_deg":53.1609,"raan_deg":157.8277,"arg_perigee_deg":81.6014,"mean_anomaly_deg":278.5117,"bstar":2.3946e-5,"rev_number":28437,"period_min":94.013167399353,"perigee_km":469.95206075625,"apogee_km":471.52593246027,"semimajor_km":6848.8759966083,"source":"CELESTRAK","updated_at":"2026-05-25T13:38:16.641958Z"}}}